KF4PPJ Weather Reports


Display with metric or nautical units.
time (UTC)temp
F
wind
direction
speed
MPH
gust
MPH
rain 1hr
in
rain 24hr
in
rain mn
in
humidity
%
barometer
mb
20260901143732 58 183 2.0 7.0 0.00 0.00 0.00 93 1013.3
20260901143227 58 161 4.0 6.0 0.00 0.00 0.00 93 1013.2
20260901142724 58 205 1.0 3.0 0.00 0.00 0.00 94 1013.2
20260901142223 58 173 1.0 1.0 0.00 0.00 0.00 94 1013.2
20260901141719 58 180 1.0 3.0 0.00 0.00 0.00 95 1013.2
20260901141219 57 169 1.0 2.0 0.00 0.00 0.00 95 1013.0
20260901140718 57 146 2.0 2.0 0.00 0.00 0.00 95 1013.0
20260901140217 57 169 3.0 3.0 0.00 0.00 0.00 96 1012.9
20260901135712 57 172 1.0 3.0 0.00 0.00 0.00 96 1012.7
20260901135211 57 203 3.0 5.0 0.00 0.00 0.00 96 1013.1
20260901134708 57 150 1.0 3.0 0.00 0.00 0.00 96 1012.8
20260901134202 56 186 1.0 2.0 0.00 0.00 0.00 96 1012.8
20260901133702 56 173 0.0 3.0 0.00 0.00 0.00 96 1012.9
20260901133201 56 157 0.0 1.0 0.00 0.00 0.00 96 1013.1
20260901132700 55 150 1.0 3.0 0.00 0.00 0.00 97 1013.1
20260901132155 54 136 1.0 3.0 0.00 0.00 0.00 97 1012.9
20260901131650 53 162 0.0 0.0 0.00 0.00 0.00 96 1013.0
20260901131149 54 161 0.0 0.0 0.00 0.00 0.00 96 1012.8
20260901130644 54 149 0.0 0.0 0.00 0.00 0.00 96 1012.8
20260901130143 53 152 0.0 0.0 0.00 0.00 0.00 96 1013.1
20260901125641 53 152 0.0 0.0 0.00 0.00 0.00 96 1012.8
20260901125136 54 146 0.0 0.0 0.00 0.00 0.00 96 1012.9
20260901124632 53 155 0.0 0.0 0.00 0.00 0.00 96 1012.8
20260901124131 53 169 0.0 0.0 0.00 0.00 0.00 96 1012.7
20260901123626 53 154 0.0 0.0 0.00 0.00 0.00 96 1012.7
20260901123126 54 154 0.0 0.0 0.00 0.00 0.00 96 1012.7
20260901122624 54 154 0.0 0.0 0.00 0.00 0.00 96 1012.7
20260901122119 54 153 0.0 0.0 0.00 0.00 0.00 96 1012.4
20260901121614 54 153 0.0 0.0 0.00 0.00 0.00 96 1012.7
20260901121109 54 153 0.0 0.0 0.00 0.00 0.00 96 1012.7
20260901120608 54 146 0.0 0.0 0.00 0.00 0.00 96 1012.5
20260901120104 54 157 0.0 0.0 0.00 0.00 0.00 96 1012.5
20260901115559 54 147 0.0 0.0 0.00 0.00 0.00 96 1012.3
20260901115055 54 154 0.0 0.0 0.00 0.00 0.00 96 1012.1
20260901114551 54 148 0.0 0.0 0.00 0.00 0.00 96 1012.3
20260901114050 54 154 0.0 0.0 0.00 0.00 0.00 96 1012.2
20260901113549 54 151 0.0 0.0 0.00 0.00 0.00 96 1012.2
20260901113045 54 156 0.0 0.0 0.00 0.00 0.00 95 1012.3
20260901112545 54 158 0.0 0.0 0.00 0.00 0.00 95 1012.2
20260901112039 54 148 0.0 0.0 0.00 0.00 0.00 96 1012.2
20260901111538 54 148 0.0 0.0 0.00 0.00 0.00 96 1012.0
20260901111037 54 149 0.0 0.0 0.00 0.00 0.00 95 1012.3
20260901110533 54 147 0.0 0.0 0.00 0.00 0.00 95 1012.2
20260901110028 54 152 0.0 0.0 0.00 0.00 0.00 95 1012.0
20260901105525 54 149 0.0 0.0 0.00 0.00 0.00 95 1012.2
20260901105024 54 148 0.0 0.0 0.00 0.00 0.00 95 1012.2
20260901104521 54 149 0.0 0.0 0.00 0.00 0.00 95 1012.3
20260901104015 54 149 0.0 0.0 0.00 0.00 0.00 95 1012.1
20260901103510 54 150 0.0 0.0 0.00 0.00 0.00 95 1012.0
20260901103006 54 152 0.0 0.0 0.00 0.00 0.00 95 1012.1
20260901102505 54 152 0.0 0.0 0.00 0.00 0.00 95 1012.1
20260901102000 54 152 0.0 0.0 0.00 0.00 0.00 95 1012.1
20260901101455 54 152 0.0 0.0 0.00 0.00 0.00 95 1012.2
20260901100949 54 152 0.0 0.0 0.00 0.00 0.00 95 1012.1
20260901100444 55 152 0.0 0.0 0.00 0.00 0.00 95 1012.2
20260901095938 55 152 0.0 0.0 0.00 0.00 0.00 95 1011.9
20260901095437 55 152 0.0 0.0 0.00 0.00 0.00 95 1011.8
20260901094930 55 152 0.0 0.0 0.00 0.00 0.00 94 1011.8
20260901094429 55 151 0.0 0.0 0.00 0.00 0.00 94 1011.9
20260901093924 55 152 0.0 0.0 0.00 0.00 0.00 94 1011.8
20260901093423 55 153 0.0 0.0 0.00 0.00 0.00 94 1011.7
20260901092913 55 152 0.0 0.0 0.00 0.00 0.00 94 1011.8
20260901092409 55 151 0.0 0.0 0.00 0.00 0.00 94 1011.9
20260901091904 55 152 0.0 0.0 0.00 0.00 0.00 94 1011.6
20260901091358 55 151 0.0 0.0 0.00 0.00 0.00 94 1011.6
20260901090853 55 150 0.0 0.0 0.00 0.00 0.00 93 1011.8
20260901090348 55 150 0.0 0.0 0.00 0.00 0.00 93 1011.8
20260901085844 55 150 0.0 0.0 0.00 0.00 0.00 93 1011.8
20260901085339 55 147 0.0 0.0 0.00 0.00 0.00 93 1011.8
20260901084835 56 153 0.0 0.0 0.00 0.00 0.00 93 1011.8
20260901084331 56 156 0.0 0.0 0.00 0.00 0.00 93 1011.7
20260901083826 56 140 0.0 0.0 0.00 0.00 0.00 93 1011.7
20260901083321 56 153 0.0 0.0 0.00 0.00 0.00 93 1011.6
20260901082819 56 151 0.0 0.0 0.00 0.00 0.00 93 1011.6
20260901082315 56 152 0.0 0.0 0.00 0.00 0.00 93 1011.7
20260901081809 56 154 0.0 0.0 0.00 0.00 0.00 93 1011.6
20260901081304 56 154 0.0 0.0 0.00 0.00 0.00 93 1011.7
20260901080759 56 158 0.0 0.0 0.00 0.00 0.00 92 1011.6
20260901080258 56 151 0.0 0.0 0.00 0.00 0.00 92 1011.6
20260901075752 56 161 0.0 0.0 0.00 0.00 0.00 92 1011.5
20260901075247 56 160 0.0 0.0 0.00 0.00 0.00 92 1011.4
20260901074742 57 160 0.0 0.0 0.00 0.00 0.00 92 1011.2
20260901074237 56 147 0.0 0.0 0.00 0.00 0.00 92 1011.1
20260901073733 56 145 0.0 0.0 0.00 0.00 0.00 92 1011.2
20260901073229 56 145 0.0 0.0 0.00 0.00 0.00 92 1011.1
20260901072724 57 154 0.0 0.0 0.00 0.00 0.00 91 1011.5
20260901072218 57 155 0.0 0.0 0.00 0.00 0.00 91 1011.4
20260901071713 57 153 0.0 0.0 0.00 0.00 0.00 91 1011.5
20260901071212 57 153 0.0 0.0 0.00 0.00 0.00 91 1011.0
20260901070706 57 153 0.0 0.0 0.00 0.00 0.00 91 1011.4
20260901070202 57 153 0.0 0.0 0.00 0.00 0.00 91 1011.2
20260901065700 57 154 0.0 0.0 0.00 0.00 0.00 90 1011.2
20260901065155 57 154 0.0 0.0 0.00 0.00 0.00 90 1011.4
20260901064652 57 154 0.0 0.0 0.00 0.00 0.00 90 1011.1
20260901064149 57 153 0.0 0.0 0.00 0.00 0.00 89 1011.3
20260901063646 57 152 0.0 0.0 0.00 0.00 0.00 89 1011.1
20260901063141 58 163 0.0 0.0 0.00 0.00 0.00 89 1011.3
20260901062637 58 152 0.0 0.0 0.00 0.00 0.00 89 1011.2
20260901062133 58 151 0.0 0.0 0.00 0.00 0.00 89 1011.3
20260901061629 58 155 0.0 0.0 0.00 0.00 0.00 88 1011.4
20260901061129 58 153 0.0 0.0 0.00 0.00 0.00 88 1011.3
20260901060623 58 153 0.0 0.0 0.00 0.00 0.00 87 1011.5
20260901060120 59 154 0.0 0.0 0.00 0.00 0.00 87 1011.3
20260901055619 59 164 0.0 0.0 0.00 0.00 0.00 87 1011.5
20260901055116 59 156 0.0 0.0 0.00 0.00 0.00 87 1011.5
20260901054613 59 152 0.0 0.0 0.00 0.00 0.00 86 1011.5
20260901054109 59 152 0.0 0.0 0.00 0.00 0.00 85 1011.5
20260901053605 59 152 0.0 0.0 0.00 0.00 0.00 85 1011.5
20260901053100 60 152 0.0 0.0 0.00 0.00 0.00 84 1011.3
20260901052555 60 151 0.0 0.0 0.00 0.00 0.00 83 1011.5
20260901052049 60 160 0.0 0.0 0.00 0.00 0.00 82 1011.5
20260901051544 61 153 0.0 0.0 0.00 0.00 0.00 82 1011.4
20260901051043 61 100 3.0 3.0 0.00 0.00 0.00 82 1011.5
20260901050538 61 140 0.0 1.0 0.00 0.00 0.00 82 1011.7
20260901050033 61 153 0.0 1.0 0.00 0.00 0.00 81 1011.6
20260901045529 61 154 0.0 0.0 0.00 0.00 0.00 81 1011.5
20260901045029 61 146 0.0 0.0 0.00 0.00 0.00 82 1011.4
20260901044525 61 148 0.0 0.0 0.00 0.00 0.00 81 1011.4
20260901044020 61 153 0.0 0.0 0.00 0.00 0.00 81 1011.5
20260901043516 62 153 0.0 0.0 0.00 0.00 0.00 80 1011.7
20260901043011 62 130 0.0 0.0 0.00 0.00 0.00 79 1011.6
20260901042510 62 145 0.0 1.0 0.00 0.00 0.00 79 1011.6
20260901042006 62 180 1.0 2.0 0.00 0.00 0.00 80 1011.7
20260901041507 62 159 0.0 1.0 0.00 0.00 0.00 80 1011.7
20260901041001 62 145 0.0 1.0 0.00 0.00 0.00 79 1011.8
20260901040456 62 138 0.0 0.0 0.00 0.00 0.00 79 1011.7
20260901035954 62 155 0.0 1.0 0.00 0.00 0.00 78 1011.7
20260901035453 62 168 1.0 1.0 0.00 0.00 0.00 77 1011.4
20260901034952 62 162 0.0 1.0 0.00 0.00 0.00 77 1011.3
20260901034452 63 154 0.0 0.0 0.00 0.00 0.00 76 1011.5
20260901033948 63 152 0.0 1.0 0.00 0.00 0.00 75 1011.3
20260901033446 63 146 1.0 1.0 0.00 0.00 0.00 75 1011.2
20260901032945 64 152 0.0 1.0 0.00 0.00 0.00 74 1011.0
20260901032439 64 145 1.0 2.0 0.00 0.00 0.00 73 1011.2
20260901031934 64 162 0.0 1.0 0.00 0.00 0.00 72 1011.0
20260901031430 65 160 0.0 1.0 0.00 0.00 0.00 71 1011.0
20260901030924 66 159 0.0 1.0 0.00 0.00 0.00 69 1011.1
20260901030420 66 155 0.0 0.0 0.00 0.00 0.00 67 1011.1
20260901025918 67 157 0.0 2.0 0.00 0.00 0.00 67 1011.0
20260901025414 68 154 0.0 1.0 0.00 0.00 0.00 65 1010.8
20260901024908 68 135 1.0 3.0 0.00 0.00 0.00 64 1010.9
20260901024407 68 155 0.0 1.0 0.00 0.00 0.00 61 1010.9
20260901023906 69 157 0.0 3.0 0.00 0.00 0.00 62 1010.8
20260901023401 69 157 0.0 3.0 0.00 0.00 0.00 60 1011.1
20260901022856 69 156 0.0 1.0 0.00 0.00 0.00 61 1011.2
20260901022352 69 168 0.0 2.0 0.00 0.00 0.00 60 1011.0
20260901021842 70 136 1.0 2.0 0.00 0.00 0.00 59 1010.9
20260901021337 70 150 0.0 5.0 0.00 0.00 0.00 61 1010.8
20260901020831 70 174 1.0 2.0 0.00 0.00 0.00 60 1011.0
20260901020327 70 158 0.0 2.0 0.00 0.00 0.00 60 1011.1
20260901015821 71 173 1.0 1.0 0.00 0.00 0.00 60 1011.0
20260901015318 71 206 1.0 2.0 0.00 0.00 0.00 59 1011.0
20260901014811 71 135 5.0 7.0 0.00 0.00 0.00 59 1011.0
20260901014308 71 159 3.0 3.0 0.00 0.00 0.00 59 1010.8
20260901013803 71 140 1.0 2.0 0.00 0.00 0.00 59 1011.0
20260901013258 72 282 3.0 5.0 0.00 0.00 0.00 58 1010.9
20260901012754 72 126 2.0 6.0 0.00 0.00 0.00 57 1011.1
20260901012253 73 171 2.0 3.0 0.00 0.00 0.00 57 1011.1
20260901011749 73 140 1.0 2.0 0.00 0.00 0.00 57 1011.0
20260901011244 73 97 3.0 5.0 0.00 0.00 0.00 57 1011.0
20260901010738 73 330 3.0 5.0 0.00 0.00 0.00 56 1011.0
20260901010233 73 154 2.0 6.0 0.00 0.00 0.00 56 1010.8
20260901005732 74 144 2.0 6.0 0.00 0.00 0.00 55 1010.8
20260901005227 75 11 3.0 5.0 0.00 0.00 0.00 53 1011.0
20260901004727 77 169 3.0 3.0 0.00 0.00 0.00 52 1010.9
20260901004221 77 210 3.0 5.0 0.00 0.00 0.00 51 1011.0
20260901003716 78 226 3.0 6.0 0.00 0.00 0.00 50 1011.0
20260901003216 79 270 3.0 5.0 0.00 0.00 0.00 49 1011.0
20260901002714 79 222 3.0 6.0 0.00 0.00 0.00 48 1010.9
20260901002209 79 146 1.0 6.0 0.00 0.00 0.00 47 1011.1
20260901001705 78 187 1.0 5.0 0.00 0.00 0.00 48 1011.2
20260901001200 78 50 2.0 5.0 0.00 0.00 0.00 48 1011.1
20260901000650 77 197 3.0 3.0 0.00 0.00 0.00 49 1011.2
20260901000145 78 348 4.0 7.0 0.00 0.00 0.00 48 1011.2
20260831235643 79 307 3.0 6.0 0.00 0.00 0.00 47 1011.3
20260831235140 78 150 2.0 3.0 0.00 0.00 0.00 48 1011.3
20260831234638 78 99 3.0 7.0 0.00 0.00 0.00 47 1011.3
20260831234134 78 155 2.0 5.0 0.00 0.00 0.00 47 1011.4
20260831233624 77 140 0.0 2.0 0.00 0.00 0.00 48 1011.3
20260831233120 78 358 2.0 8.0 0.00 0.00 0.00 47 1011.5
20260831232615 77 164 2.0 3.0 0.00 0.00 0.00 48 1011.4
20260831232111 78 184 4.0 6.0 0.00 0.00 0.00 46 1011.5
20260831231607 78 315 4.0 5.0 0.00 0.00 0.00 46 1011.7
20260831231102 78 145 0.0 7.0 0.00 0.00 0.00 45 1011.6
20260831230557 79 352 3.0 7.0 0.00 0.00 0.00 45 1011.6
20260831230051 80 152 3.0 3.0 0.00 0.00 0.00 45 1011.6
20260831225547 78 184 1.0 2.0 0.00 0.00 0.00 46 1011.8
20260831225042 78 114 2.0 5.0 0.00 0.00 0.00 46 1011.8
20260831224537 77 209 2.0 5.0 0.00 0.00 0.00 48 1011.9
20260831224033 76 154 2.0 5.0 0.00 0.00 0.00 49 1012.1
20260831223528 77 135 1.0 3.0 0.00 0.00 0.00 49 1012.1
20260831223024 77 215 3.0 10.0 0.00 0.00 0.00 49 1012.0
20260831222520 77 227 5.0 6.0 0.00 0.00 0.00 49 1012.1
20260831222019 77 110 1.0 5.0 0.00 0.00 0.00 50 1012.2
20260831221515 77 42 3.0 6.0 0.00 0.00 0.00 50 1012.3
20260831221010 77 172 2.0 5.0 0.00 0.00 0.00 50 1012.4
20260831220505 75 160 3.0 6.0 0.00 0.00 0.00 52 1012.5
20260831220001 75 4 5.0 7.0 0.00 0.00 0.00 52 1012.3
20260831215456 75 348 3.0 7.0 0.00 0.00 0.00 53 1012.8
20260831214952 75 213 4.0 6.0 0.00 0.00 0.00 53 1012.5
20260831214449 74 200 4.0 5.0 0.00 0.00 0.00 54 1012.6
20260831213945 74 290 4.0 9.0 0.00 0.00 0.00 54 1012.7
20260831213442 74 208 4.0 5.0 0.00 0.00 0.00 55 1012.8
20260831212941 74 220 3.0 7.0 0.00 0.00 0.00 54 1013.0
20260831212437 74 240 6.0 8.0 0.00 0.00 0.00 53 1013.0
20260831211936 74 170 2.0 6.0 0.00 0.00 0.00 54 1012.9
20260831211432 75 203 4.0 7.0 0.00 0.00 0.00 53 1012.9
20260831210925 75 142 4.0 5.0 0.00 0.00 0.00 53 1012.9
20260831210421 75 212 5.0 9.0 0.00 0.00 0.00 53 1013.0
20260831205916 75 226 2.0 6.0 0.00 0.00 0.00 53 1013.1
20260831205412 74 230 2.0 6.0 0.00 0.00 0.00 54 1013.3
20260831204907 74 193 2.0 5.0 0.00 0.00 0.00 54 1013.1
20260831204406 75 47 2.0 8.0 0.00 0.00 0.00 52 1013.3
20260831203905 75 82 1.0 2.0 0.00 0.00 0.00 53 1013.6
20260831203400 75 190 1.0 3.0 0.00 0.00 0.00 53 1013.6
20260831202858 73 110 1.0 2.0 0.00 0.00 0.00 55 1013.4
20260831202354 72 124 4.0 6.0 0.00 0.00 0.00 56 1013.5
20260831201853 72 349 2.0 6.0 0.00 0.00 0.00 57 1013.5
20260831201352 73 358 7.0 10.0 0.00 0.00 0.00 55 1013.9
20260831200848 73 171 2.0 5.0 0.00 0.00 0.00 56 1013.9
20260831200343 73 342 5.0 10.0 0.00 0.00 0.00 57 1013.9
20260831195838 72 7 5.0 7.0 0.00 0.00 0.00 58 1013.8
20260831195334 72 282 5.0 7.0 0.00 0.00 0.00 58 1013.9
20260831194829 71 158 1.0 7.0 0.00 0.00 0.00 59 1014.1
20260831194324 72 340 4.0 7.0 0.00 0.00 0.00 58 1014.2
20260831193824 72 147 3.0 8.0 0.00 0.00 0.00 59 1014.2
20260831193319 71 176 1.0 8.0 0.00 0.00 0.00 59 1014.3
20260831192814 71 202 1.0 5.0 0.00 0.00 0.00 60 1014.2
20260831192309 71 231 3.0 6.0 0.00 0.00 0.00 61 1014.6
20260831191805 71 18 4.0 7.0 0.00 0.00 0.00 59 1014.4
20260831191301 71 144 4.0 7.0 0.00 0.00 0.00 60 1014.6
20260831190757 71 75 2.0 9.0 0.00 0.00 0.00 59 1014.8
20260831190256 71 93 2.0 5.0 0.00 0.00 0.00 60 1014.7
20260831185751 70 238 3.0 9.0 0.00 0.00 0.00 60 1014.9
20260831185247 70 77 4.0 9.0 0.00 0.00 0.00 61 1014.9
20260831184745 70 321 5.0 13.0 0.00 0.00 0.00 60 1015.3
20260831184242 71 193 5.0 7.0 0.00 0.00 0.00 60 1015.0
20260831183742 70 152 3.0 5.0 0.00 0.00 0.00 60 1014.9
20260831183236 69 239 7.0 13.0 0.00 0.00 0.00 62 1015.0
20260831182735 68 192 5.0 7.0 0.00 0.00 0.00 65 1015.2
20260831182231 68 200 4.0 7.0 0.00 0.00 0.00 64 1015.2
20260831181730 68 202 4.0 6.0 0.00 0.00 0.00 62 1015.4
20260831181226 68 269 4.0 6.0 0.00 0.00 0.00 62 1015.3
20260831180720 69 16 6.0 9.0 0.00 0.00 0.00 60 1015.4
20260831180215 68 160 2.0 5.0 0.00 0.00 0.00 63 1015.4
20260831175714 67 60 3.0 5.0 0.00 0.00 0.00 64 1015.4
20260831175211 67 211 5.0 6.0 0.00 0.00 0.00 63 1015.5
20260831174706 67 144 4.0 5.0 0.00 0.00 0.00 63 1015.5
20260831174201 67 31 5.0 11.0 0.00 0.00 0.00 63 1015.8
20260831173700 67 192 2.0 3.0 0.00 0.00 0.00 64 1015.9
20260831173156 66 158 2.0 8.0 0.00 0.00 0.00 67 1015.9
20260831172655 66 161 5.0 8.0 0.00 0.00 0.00 66 1015.9
20260831172151 65 263 3.0 5.0 0.00 0.00 0.00 68 1015.9
20260831171645 64 111 1.0 6.0 0.00 0.00 0.00 70 1015.6
20260831171143 64 23 8.0 11.0 0.00 0.00 0.00 69 1015.9
20260831170639 64 151 5.0 13.0 0.00 0.00 0.00 69 1015.8
20260831170136 64 216 2.0 9.0 0.00 0.00 0.00 71 1015.9
20260831165631 64 199 1.0 8.0 0.00 0.00 0.00 72 1015.9
20260831165127 64 3 6.0 8.0 0.00 0.00 0.00 72 1016.0
20260831164623 64 101 2.0 3.0 0.00 0.00 0.00 73 1015.9
20260831164119 64 203 2.0 3.0 0.00 0.00 0.00 73 1016.2
20260831163614 63 204 3.0 3.0 0.00 0.00 0.00 75 1016.1
20260831163109 63 200 2.0 8.0 0.00 0.00 0.00 75 1016.1
20260831162608 63 166 1.0 6.0 0.00 0.00 0.00 77 1016.3
20260831162106 63 105 2.0 3.0 0.00 0.00 0.00 76 1016.2
20260831161603 62 151 1.0 6.0 0.00 0.00 0.00 78 1016.6
20260831161059 62 165 3.0 7.0 0.00 0.00 0.00 80 1016.6
20260831160557 61 183 0.0 3.0 0.00 0.00 0.00 82 1016.6
20260831160053 60 166 2.0 7.0 0.00 0.00 0.00 83 1016.6
20260831155547 60 26 4.0 6.0 0.00 0.00 0.00 83 1016.6
20260831155042 60 315 5.0 9.0 0.00 0.00 0.00 84 1016.6
20260831154538 60 75 2.0 3.0 0.00 0.00 0.00 87 1016.8
20260831154033 59 143 1.0 3.0 0.00 0.00 0.00 90 1016.5
20260831153532 58 103 1.0 2.0 0.00 0.00 0.00 92 1016.9
20260831153030 57 151 0.0 1.0 0.00 0.00 0.00 95 1016.7
20260831152525 57 145 0.0 3.0 0.00 0.00 0.00 95 1016.7
20260831152020 57 148 0.0 2.0 0.00 0.00 0.00 95 1017.0
20260831151514 57 157 0.0 0.0 0.00 0.00 0.00 96 1016.8
20260831151014 55 140 0.0 0.0 0.00 0.00 0.00 96 1017.1
20260831150509 55 128 0.0 1.0 0.00 0.00 0.00 96 1016.8
20260831150005 54 148 0.0 0.0 0.00 0.00 0.00 96 1017.2
20260831145459 54 146 0.0 0.0 0.00 0.00 0.00 96 1016.8
20260831144955 54 154 0.0 0.0 0.00 0.00 0.00 96 1016.7
20260831144450 53 152 0.0 0.0 0.00 0.00 0.00 96 1016.8
20260831143946 53 153 0.0 0.0 0.00 0.00 0.00 96 1016.6